Regional Weather Roundup
Issued by NWS

Home | Current Version | Previous Version | Graphics & Text | Print | Product List | Glossary On
Versions: 1 2 3 4 5 6 7 8 9 10 11 12 13 14 15 16 17 18 19 20 21 22 23 24 25 26 27 28 29 30 31 32 33 34 35 36 37 38 39 40 41 42 43 44 45 46 47 48 49 50
000
ASUS43 KTOP 030059
RWRKS

WEATHER ROUNDUP FOR KANSAS
NATIONAL WEATHER SERVICE GOODLAND KS
800 PM CDT TUE SEP 02 2014

NOTE:  "FAIR" INDICATES FEW OR NO CLOUDS BELOW 12,000 FEET WITH NO
SIGNIFICANT WEATHER AND/OR OBSTRUCTIONS TO VISIBILITY.

KSZ001>006-013>018-027>032-041>047-030200-
NORTHWEST KANSAS

CITY           SKY/WX    TMP DP  RH WIND       PRES   REMARKS
GOODLAND       CLEAR     78  57  48 S14       29.94F
HAYS           CLEAR     79  66  65 S10       29.91S
HILL CITY      CLEAR     80  66  62 SE7       29.91S
RUSSELL        CLEAR     79  67  66 SE9       29.90S
$$

KSZ061>065-074>080-084>089-030200-
SOUTHWEST KANSAS

CITY           SKY/WX    TMP DP  RH WIND       PRES   REMARKS
DODGE CITY     PTCLDY    79  67  66 SE10      29.93S
ELKHART          N/A     80  64  58 SE7         N/A
GARDEN CITY    CLEAR     78  64  61 S7        29.93S
GREAT BEND     CLEAR     79  68  69 SE6       29.91S
LIBERAL        CLEAR     84  64  51 E9        29.93S
$$

KSZ066>073-081>083-090>101-030200-
SOUTHEAST KANSAS

CITY           SKY/WX    TMP DP  RH WIND       PRES   REMARKS
CHANUTE        CLEAR     76  68  76 S7        29.94S
COFFEYVILLE    CLEAR     77  71  82 S6        29.94R
HUTCHINSON     CLEAR     80  67  64 SE7       29.91S
NEWTON         CLEAR     75  64  69 SE6       29.96S
PARSONS        CLEAR     75  70  84 CALM      29.95S
WICHITA INTL   PTCLDY    82  68  62 E9        29.90F
WICHITA JABRA  CLEAR     79  68  69 SE6       29.92S
WINFIELD       MOCLDY    80  72  76 E7        29.92F
$$

KSZ007>012-019>026-033>040-048>060-102>105-030200-
NORTHEAST KANSAS

CITY           SKY/WX    TMP DP  RH WIND       PRES   REMARKS
CONCORDIA      CLEAR     75  70  84 SE5       29.92R
EMPORIA        CLEAR     76  69  79 E6        29.94R
LAWRENCE       CLEAR     73  68  84 E5        29.94R
MANHATTAN      CLEAR     79  68  69 E3        29.91S
OLATHE IND     CLEAR     76  67  73 SE3       29.96R
OLATHE EXE     CLEAR     75  68  78 CALM      29.95R
SALINA         CLEAR     80  68  66 SE7       29.91R
TOPEKA BILLARD CLEAR     78  70  76 E5        29.93R
TOPEKA FORBES  CLEAR     77  68  73 E5        29.94R
$$


USA.gov is the U.S. government's official web portal to all federal, state and local government web resources and services.